This is the latest recevied weather packets stored in our database for station/object W4NRG-1. If no packets are shown the sender has not sent any weather packets the latest 1 day(s).
| Time | Temp. | Humidity | Pressure | Rain* | Wind** | Luminosity | Snow |
|---|---|---|---|---|---|---|---|
| 1778024474 | 25.56° C | 40% | 1011.9 hPa | 0 mm | 1.79 m/s, 313° | - | - |
| 1778024171 | 25.56° C | 39% | 1012 hPa | 0 mm | 2.68 m/s, 108° | - | - |
| 1778023868 | 26.11° C | 39% | 1012.1 hPa | 0 mm | 1.34 m/s, 328° | - | - |
| 1778023566 | 26.11° C | 39% | 1011.7 hPa | 0 mm | 0.89 m/s, 97° | - | - |
| 1778023264 | 26.11° C | 38% | 1011.7 hPa | 0 mm | 0.89 m/s, 67° | - | - |
| 1778022960 | 26.11° C | 38% | 1011.8 hPa | 0 mm | 0.89 m/s, 101° | - | - |
| 1778022659 | 26.11° C | 38% | 1011.6 hPa | 0 mm | 1.34 m/s, 18° | - | - |
| 1778022356 | 26.11° C | 37% | 1011.8 hPa | 0 mm | 2.24 m/s, 335° | - | - |
| 1778022052 | 26.67° C | 38% | 1011.8 hPa | 0 mm | 1.34 m/s, 50° | - | - |
| 1778021749 | 26.67° C | 37% | 1011.7 hPa | 0 mm | 0.89 m/s, 106° | - | - |
| 1778021445 | 26.67° C | 37% | 1011.5 hPa | 0 mm | 1.34 m/s, 320° | - | - |
| 1778021142 | 26.67° C | 37% | 1011.6 hPa | 0 mm | 0 m/s | - | - |
| 1778020840 | 26.67° C | 37% | 1011.6 hPa | 0 mm | 0.45 m/s, 336° | - | - |
| 1778020537 | 26.67° C | 36% | 1011.5 hPa | 0 mm | 3.13 m/s, 352° | - | - |
| 1778020233 | 26.67° C | 36% | 1011.7 hPa | 0 mm | 0.89 m/s, 19° | - | - |
| 1778019929 | 27.22° C | 35% | 1011.7 hPa | 0 mm | 0.89 m/s, 49° | - | - |
| 1778019625 | 27.78° C | 35% | 1011.7 hPa | 0 mm | 0.89 m/s, 109° | - | - |
| 1778019323 | 27.78° C | 34% | 1011.8 hPa | 0 mm | 1.79 m/s, 67° | - | - |
| 1778019019 | 27.78° C | 34% | 1011.6 hPa | 0 mm | 2.24 m/s, 83° | - | - |
| 1778018716 | 27.78° C | 34% | 1011.5 hPa | 0 mm | 0.89 m/s, 56° | - | - |
| 1778018414 | 27.78° C | 34% | 1011.5 hPa | 0 mm | 0.89 m/s, 273° | - | - |
| 1778018112 | 27.78° C | 34% | 1011.6 hPa | 0 mm | 2.24 m/s, 313° | - | - |
| 1778017810 | 27.78° C | 34% | 1011.7 hPa | 0 mm | 1.34 m/s, 318° | - | - |
| 1778017508 | 27.78° C | 34% | 1011.7 hPa | 0 mm | 1.34 m/s, 169° | - | - |
| 1778017204 | 28.33° C | 34% | 1011.5 hPa | 0 mm | 1.34 m/s, 28° | - | - |
* Rain latest hour (hover to see other rain measurements)
** Current wind speed in m/s (hover to see current wind gust speed)